* Astronomy

Members Login
Username 
 
Password 
    Remember Me  
Post Info TOPIC: Asteroid 2011 XO3


L

Posts: 131433
Date:
Asteroid 2011 XO3
Permalink  
 


Orbital elements:
2011 XO3                                                 Earth MOID = 0.1588 AU
Epoch 2012 Mar. 14.0 TT = JDT 2456000.5                 MPC
M 353.07687              (2000.0)            P               Q
n   0.16870767     Peri.  209.84311     -0.96164044     -0.10654537
a   3.2437409      Node   321.36128     +0.25095416     -0.71380265
e   0.6600122      Incl.   23.88019     -0.11076852     -0.69219495
P   5.84           H   16.5           G   0.15           U   6

MPEC 2012 - A41



__________________
Page 1 of 1  sorted by
 
Quick Reply

Please log in to post quick replies.



Create your own FREE Forum
Report Abuse
Powered by ActiveBoard